GW6505 Weather Reports


time (UTC)temp
C
wind
direction
speed
KPH
gust
KPH
rain 1hr
cm
rain 24hr
cm
rain mn
cm
humidity
%
barometer
mb
20260504201602 22 251 6.4 14.5 0.00 0.00 0.00 32 1016.6
20260504200602 22 266 9.7 11.3 0.00 0.00 0.00 31 1016.8
20260504195600 22 331 4.8 11.3 0.00 0.00 0.00 30 1017.0
20260504194559 22 218 9.7 16.1 0.00 0.00 0.00 29 1016.8
20260504193557 21 242 8.0 12.9 0.00 0.00 0.00 29 1017.0
20260504192554 22 271 3.2 12.9 0.00 0.00 0.00 30 1017.4
20260504191550 22 157 9.7 14.5 0.00 0.00 0.00 27 1017.4
20260504190548 22 255 12.9 22.5 0.00 0.00 0.00 28 1017.3
20260504185547 22 266 4.8 16.1 0.00 0.00 0.00 29 1017.3
20260504184545 22 38 3.2 24.1 0.00 0.00 0.00 27 1017.5
20260504183543 21 227 4.8 12.9 0.00 0.00 0.00 29 1017.4
20260504182538 21 187 3.2 12.9 0.00 0.00 0.00 30 1017.8
20260504181538 21 188 8.0 9.7 0.00 0.00 0.00 30 1017.7
20260504180535 21 264 3.2 14.5 0.00 0.00 0.00 33 1018.0
20260504175530 21 10 3.2 16.1 0.00 0.00 0.00 30 1018.3
20260504174525 20 347 3.2 11.3 0.00 0.00 0.00 30 1018.1
20260504173524 20 94 4.8 25.7 0.00 0.00 0.00 32 1018.2
20260504172524 20 17 3.2 12.9 0.00 0.00 0.00 29 1018.4
20260504171523 20 234 6.4 12.9 0.00 0.00 0.00 32 1018.7
20260504170521 20 57 4.8 16.1 0.00 0.00 0.00 32 1018.9
20260504150501 18 242 6.4 14.5 0.00 0.00 0.00 33 1019.9
20260504140452 16 341 6.4 16.1 0.00 0.00 0.00 35 1020.7
20260504130435 13 9 3.2 12.9 0.00 0.00 0.00 44 1021.2
20260504110409 7 239 1.6 3.2 0.00 0.00 0.00 60 1021.4
20260504100354 5 75 0.0 0.0 0.00 0.00 0.00 66 1021.3
20260504081337 5 74 0.0 0.0 0.00 0.00 0.00 64 1021.2
20260504080336 5 74 0.0 0.0 0.00 0.00 0.00 63 1021.3
20260504070332 6 80 0.0 0.0 0.00 0.00 0.00 62 1020.8
20260504050311 6 63 0.0 0.0 0.00 0.00 0.00 59 1020.5
20260504045308 6 63 0.0 0.0 0.00 0.00 0.00 59 1020.6
20260504044303 5 63 0.0 0.0 0.00 0.00 0.00 61 1020.8
20260504043303 5 63 0.0 0.0 0.00 0.00 0.00 66 1020.6
20260504042304 5 63 0.0 0.0 0.00 0.00 0.00 65 1020.5
20260504041300 5 62 1.6 1.6 0.00 0.00 0.00 60 1020.5
20260504040300 6 62 0.0 0.0 0.00 0.00 0.00 59 1020.6
20260504035259 6 62 1.6 1.6 0.00 0.00 0.00 61 1020.5
20260504034254 6 62 0.0 0.0 0.00 0.00 0.00 58 1020.4
20260504033249 6 62 0.0 0.0 0.00 0.00 0.00 55 1020.4
20260504032248 6 62 0.0 0.0 0.00 0.00 0.00 57 1020.4
20260504031249 6 62 0.0 0.0 0.00 0.00 0.00 55 1020.4
20260504030248 7 62 0.0 0.0 0.00 0.00 0.00 56 1020.3
20260504025247 7 62 0.0 0.0 0.00 0.00 0.00 52 1020.1
20260504024246 8 62 0.0 0.0 0.00 0.00 0.00 50 1020.3
20260504023245 8 62 0.0 0.0 0.00 0.00 0.00 48 1020.3
20260504022243 8 62 0.0 0.0 0.00 0.00 0.00 49 1020.1
20260504021244 8 62 0.0 0.0 0.00 0.00 0.00 50 1020.1
20260504020243 8 62 0.0 0.0 0.00 0.00 0.00 51 1020.3
20260504015241 8 62 0.0 0.0 0.00 0.00 0.00 50 1020.1
20260504014240 8 61 0.0 0.0 0.00 0.00 0.00 48 1020.1
20260504013235 9 61 0.0 0.0 0.00 0.00 0.00 46 1020.1
20260504012235 10 59 0.0 0.0 0.00 0.00 0.00 44 1020.0
20260504011234 10 59 0.0 0.0 0.00 0.00 0.00 43 1020.2
20260504010232 10 58 0.0 0.0 0.00 0.00 0.00 43 1020.2
20260504005232 11 60 0.0 1.6 0.00 0.00 0.00 44 1020.0
20260504004232 11 60 0.0 3.2 0.00 0.00 0.00 42 1020.0
20260504003232 11 23 3.2 4.8 0.00 0.00 0.00 41 1019.7
20260504002231 11 54 0.0 0.0 0.00 0.00 0.00 41 1019.8
20260504001231 11 53 0.0 0.0 0.00 0.00 0.00 38 1019.4
20260504000231 12 49 1.6 3.2 0.00 0.00 0.00 39 1019.3
20260503235226 12 50 3.2 4.8 0.00 0.00 0.00 37 1019.3
20260503234222 12 52 0.0 3.2 0.00 0.00 0.00 40 1019.3
20260503233219 12 58 0.0 1.6 0.00 0.00 0.00 37 1019.2
20260503232219 13 55 1.6 1.6 0.00 0.00 0.00 36 1019.0
20260503231214 13 346 4.8 4.8 0.00 0.00 0.00 33 1019.1
20260503230214 13 279 4.8 12.9 0.00 0.00 0.00 32 1018.8
20260503225211 13 341 3.2 4.8 0.00 0.00 0.00 32 1018.7
20260503224206 13 30 3.2 9.7 0.00 0.00 0.00 32 1018.8
20260503223201 13 333 4.8 9.7 0.00 0.00 0.00 29 1018.6
20260503222155 13 34 4.8 9.7 0.00 0.00 0.00 29 1018.5
20260503221150 13 352 4.8 6.4 0.00 0.00 0.00 30 1018.4
20260503220149 13 353 4.8 9.7 0.00 0.00 0.00 27 1018.4
20260503215149 13 56 8.0 14.5 0.00 0.00 0.00 27 1018.2
20260503214149 13 26 4.8 12.9 0.00 0.00 0.00 26 1018.4
20260503213145 14 36 6.4 14.5 0.00 0.00 0.00 25 1018.6
20260503212140 15 269 8.0 14.5 0.00 0.00 0.00 24 1018.0
20260503211138 15 240 4.8 11.3 0.00 0.00 0.00 24 1018.2
20260503210138 15 30 6.4 9.7 0.00 0.00 0.00 26 1018.4
20260503205135 14 328 12.9 16.1 0.00 0.00 0.00 24 1018.3
20260503204135 13 266 6.4 11.3 0.00 0.00 0.00 27 1018.2
20260503203135 15 343 6.4 9.7 0.00 0.00 0.00 28 1018.2
20260503202130 14 325 11.3 16.1 0.00 0.00 0.00 25 1018.5